Powrót do katalogu

STARLINK-11632

AktywnyŁącznośćVLEO
NORAD 63108·PAYLOAD·🇺🇸 United States

Wystrzelony Feb 27, 2025 z Cape Canaveral Space Force Station

Loading…

Następne Przeloty (najbliższe 24 godziny)

TLE

ŚwieżeSource: CelesTrak SupGP

Epoka: Sep 14, 2026, 22:49 UTC

1 63108C 25039E   26257.95118056 -.00067006  00000+0 -52039-3 0  2573
2 63108  43.0005 176.1774 0001555 258.7915 325.2559 15.70873833    15

Śledź STARLINK-11632 w czasie rzeczywistym z AllMySat

Download on the App Store